Regional Weather Roundup
Issued by NWS Newport/Morehead, NC

Current Version | Previous Version | Text Only | Print | Product List | Glossary Off
Versions: 1 2 3 4 5 6 7 8 9 10 11 12 13 14 15 16 17 18 19 20 21 22 23 24 25 26 27 28 29 30 31 32 33 34 35 36 37 38 39 40 41 42 43 44 45 46 47 48 49 50
000 ASUS42 KMHX 261722 RWRMHX WEATHER ROUNDUP FOR EASTERN NORTH CAROLINA NATIONAL WEATHER SERVICE NEWPORT/MOREHEAD CITY NC 1200 PM EST WED NOV 26 2014 NOTE: "FAIR" INDICATES FEW OR NO CLOUDS BELOW 12,000 FEET WITH NO SIGNIFICANT WEATHER AND/OR OBSTRUCTIONS TO VISIBILITY NCZ015>017-031-032-045>047-102-103-261800- NORTH COAST CITY SKY/WX TMP DP RH WIND PRES REMARKS EDENTON LGT RAIN 46 45 95 N17G29 29.76R ELIZABETH CITY HVY RAIN 48 45 87 N21G32 29.73F KITTY HAWK RAIN 53 52 99 N14G25 29.68F MANTEO RAIN 52 51 97 N18G28 29.71F $$ NCZ045>047-081-094-103-104-261800- CENTRAL COAST CITY SKY/WX TMP DP RH WIND PRES REMARKS FRISCO RAIN 70 70 100 SW25G35 29.65F FOG SWANQUARTER N/A 50 N/A N/A VRB2G22 29.68F $$ NCZ095-097-098-100-101-261800- SOUTHERN COAST CITY SKY/WX TMP DP RH WIND PRES REMARKS BEAUFORT RAIN 51 50 96 NW20 29.74R FOG CEDAR ISLAND N/A 52 N/A N/A NW18G32 29.77R JACKSONVILLE LGT RAIN 48 45 89 N14G23 29.79F PINEY ISLAND LGT RAIN 53 49 86 NW18G28 29.73R FOG WILMINGTON LGT RAIN 48 46 93 N12G22 29.81F $$ NCZ011>013-027>030-043-044-078>080-089-090>093-098-261800- COASTAL PLAIN CITY SKY/WX TMP DP RH WIND PRES REMARKS AHOSKIE HVY RAIN 44 42 93 N14G22 29.82F CLINTON CLOUDY 47 46 96 N12 29.85F ELIZABETHTOWN DRIZZLE 49 47 93 NW6 29.86F GOLDSBORO CLOUDY 46 46 100 N13G23 29.82F GREENVILLE RAIN 45 45 100 N13G21 29.85S HAVELOCK RAIN 49 47 93 NW17G24 29.78S FOG KENANSVILLE LGT RAIN 46 45 95 N17G23 29.81F KINSTON LGT RAIN 46 46 100 N14 29.83F NEW BERN RAIN 49 45 86 N15G21 29.78F RICHLANDS CLOUDY 46 43 87 N10G16 29.80F ROCKY MOUNT LGT RAIN 46 43 89 N16 29.85F WASHINGTON CLOUDY 45 43 94 NW12G18 29.81R WHITEVILLE RAIN 50 46 87 NW5 29.87F $$ AMZ130-135-150-152-154-156-158-170-250-252-270-ANZ085-086-088-633-658-670-261800- MARINE OBSERVATIONS STATION/POSITION TIME TEMP WIND PRES WAVE SWELL AIR SEA DIR/SP/G HT/PER HT/PER (UTC) (F) (DEG/KT/KT) (MB) (FT/S) (FT/S) CHESAPEAKE LIGHT 1700 48 350/ 33/ 36 1008.0 64 E VA BEACH 1700 63 66 350/ 16/ 21 1003.5 12/ 8 8/ 8 DUCK 1700 52 58 350/ 31/ 39 1003.7 2 E DUCK 1700 58 N/A 8/ 8 2/11 10 NE DUCK 1600 59 N/A 8/ 7 2/11 OREGON INLET 1700 55 58 330/ 14/ 19 1004.6 13E OREGON INLT 1700 62 N/A 10/ 8 2/11 HATTERAS CG 1700 72 62 200/ 9/ 19 1004.4 DIAMOND BUOY 1700 76 190/ 23/ 27 1004.2 17 S OCRACOKE NOT AVBL CAPE LOOKOUT 1700 310/ 19/ 22 1006.4 BEAUFORT LAB 1700 51 58 330/ 12/ 17 1005.9 30 SE NEW RIVER 1700 54 67 310/ 21/ 27 1008.0 9/ 8 7/ 8 5 SE WRIGHTSVLE 1700 46 59 340/ 19/ 23 1009.2 225 S CAPE HAT 1552 76 73 190/ 23/ 27 1012.3 9/ 7 41 SE CHARLESTON 1700 57 75 310/ 21/ 25 1013.2 7/ 6 2/16 $$

USA.gov is the U.S. government's official web portal to all federal, state and local government web resources and services.